Regional Weather Roundup
Issued by NWS

Home | Current Version | Previous Version | Text Only | Print | Product List | Glossary Off
Versions: 1 2 3 4 5 6 7 8 9 10 11 12 13 14 15 16 17 18 19 20 21 22 23 24 25 26 27 28 29 30 31 32 33 34 35 36 37 38 39 40 41 42 43 44 45 46 47 48 49 50

797
ASUS45 KSLC 120310
RWRUT

UTAH REGIONAL WEATHER ROUNDUP
NATIONAL WEATHER SERVICE SALT LAKE CITY UT
800 PM MST THU FEB 11 2016

UTZ001>011-023>025-120400-

NORTHERN UTAH

CITY           SKY/WX    TMP DP  RH WIND       PRES   REMARKS
BRIGHAM CITY   CLOUDY    28  25  89 CALM      30.46S
HILL AFB       CLOUDY    27  24  90 W5        30.42S FOG     WCI  21
LOGAN          CLOUDY    23  23 100 CALM      30.44F FOG
OGDEN          CLOUDY    27  26  96 W6        30.43S FOG     WCI  20
PROVO AIRPORT  NOT AVBL
SALT LAKE CITY MOCLDY    30  27  88 SE5       30.42F FOG     WCI  25
VERNAL         CLOUDY    21  17  84 CALM      30.41S FOG
WENDOVER       CLOUDY    30  27  86 CALM      30.44S
HEBER CITY     PTCLDY    23  16  74 CALM      30.39S
WEST JORDAN    CLOUDY    28  28 100 S5        30.41F WCI  23

$$

UTZ012>022-026-027-120400-

SOUTHERN/CENTRAL UTAH

CITY           SKY/WX    TMP DP  RH WIND       PRES   REMARKS
BLANDING       CLEAR     38  28  69 CALM      30.44S
BRYCE CANYON   PTCLDY    27  20  75 CALM      30.44R
CEDAR CITY     PTCLDY    27  22  81 NE3       30.37R
DELTA          CLOUDY    21  20  97 CALM      30.44S VSB 1/4
HANKSVILLE     PTCLDY    36  32  87 CALM      30.41S
MILFORD        MOCLDY    13  10  88 N7        30.41S WCI   3
MOAB/CYNLANDS  CLEAR     32  28  85 CALM      30.38S
PRICE          CLEAR     31  24  75 N3        30.38S
ST GEORGE      PTCLDY    54  25  32 CALM      30.27S
KANAB          PTCLDY    41  32  70 NE6       30.36R

$$

REGIONAL REPORTS     COLORADO/ARIZONA

CITY           SKY/WX    TMP DP  RH WIND       PRES   REMARKS
CRAIG, CO      CLOUDY    13   8  81 CALM      30.40R
GRAND JUNCTION CLOUDY    28  26  92 CALM      30.40R
RIFLE          CLOUDY    29  19  66 CALM      30.40S
MONTROSE       CLOUDY    30  24  78 SE5       30.42R WCI  25
CORTEZ         CLOUDY    30  24  78 E8        30.38R WCI  22
PAGE, AZ       PTCLDY    45  30  55 CALM      30.34R
GRAND CANYON   CLEAR     32  22  66 CALM      30.40S
KINGMAN        CLEAR     47  27  45 SE3       30.25R
FLAGSTAFF      CLEAR     34  18  52 CALM      30.42R

$$

REGIONAL REPORTS    NEVADA/IDAHO/WYOMING

CITY           SKY/WX    TMP DP  RH WIND       PRES   REMARKS
LAS VEGAS, NV  PTCLDY    66  24  20 SW3       30.18R
ELY            PTCLDY    32  24  72 S7        30.38R WCI  26
ELKO           MOCLDY    28  21  75 NE3       30.37S
POCATELLO, ID  CLOUDY    29  26  89 CALM      30.36F
BURLEY         MOCLDY    33  28  81 NE12      30.30F WCI  24
EVANSTON, WY   CLOUDY    35  20  54 SW9       30.39F WCI  28
ROCK SPRINGS   CLOUDY    37  21  52 SW10      30.36F WCI  30
KEMMERER       CLOUDY    36  18  48 NW7       30.39F WCI  30

$$




USA.gov is the U.S. government's official web portal to all federal, state and local government web resources and services.